Total_Precipitation_Accumulation
2.32 2.61 3.48 4.43 5.04 3.90 2.88 2.36 2.04 1.82 1.47 1.09 0.87 0.88 1.23 1.71 2.04 2.10 1.92 1.69 1.07 0.99 1.11 1.59 1.93 1.83 1.68 1.61 1.60 1.68 1.70 1.63 1.67 1.70 1.73 1.64 1.74 1.83 1.83 1.74 1.66 1.67 1.61 1.59 1.55 1.56 1.62 1.47 1.50
2.01 2.80 4.07 5.03 4.31 3.05 2.61 2.11 1.85 1.58 1.20 0.89 0.76 0.69 0.81 0.66 0.63 1.10 2.01 1.93 1.08 0.87 1.00 1.42 1.96 1.88 1.79 1.77 1.78 1.85 1.80 1.59 1.55 1.54 1.51 1.53 1.66 1.82 1.94 1.90 1.76 1.77 1.68 1.56 1.45 1.42 1.55 1.51 1.53
2.31 3.26 4.51 4.60 3.24 2.52 2.49 1.92 1.45 1.06 0.78 0.83 0.84 0.73 0.79 0.94 1.04 1.51 1.91 1.38 1.01 0.91 0.99 1.54 2.09 1.90 1.81 1.81 1.93 1.91 1.74 1.64 1.54 1.49 1.48 1.50 1.64 1.78 1.90 1.75 1.71 1.77 1.75 1.64 1.60 1.58 1.67 1.65 1.69
2.58 3.72 4.09 3.47 2.63 2.03 1.77 1.51 1.16 1.00 0.71 0.48 0.65 0.85 0.77 1.01 1.19 1.40 1.34 0.98 0.78 0.81 0.90 1.39 2.02 1.90 1.74 1.71 1.88 1.80 1.67 1.73 1.65 1.54 1.56 1.64 1.81 2.03 2.06 1.89 1.86 1.81 1.81 1.71 1.71 1.72 1.77 1.75 1.75
2.86 3.67 3.67 3.27 2.44 2.10 1.58 1.24 1.05 1.02 0.82 0.55 0.55 0.86 0.99 1.34 1.32 1.27 1.18 0.98 0.79 0.80 0.84 1.15 1.75 1.78 1.63 1.59 1.69 1.65 1.67 1.76 1.67 1.60 1.63 1.73 1.84 2.01 2.16 2.14 2.05 2.01 1.94 1.83 1.75 1.75 1.71 1.70 1.74
3.26 3.34 3.46 3.22 2.64 2.31 1.79 1.31 0.95 0.88 0.75 0.60 0.58 0.87 1.21 1.64 1.54 1.47 1.25 1.15 1.01 0.89 0.80 0.95 1.49 1.63 1.56 1.56 1.59 1.55 1.57 1.58 1.55 1.60 1.64 1.66 1.73 1.85 2.00 2.07 2.13 2.07 1.96 1.95 1.90 1.86 1.75 1.72 1.65
3.02 2.99 2.75 2.33 2.48 2.60 1.86 1.18 1.08 1.03 0.99 0.84 0.61 0.93 1.31 1.75 1.61 1.34 1.31 1.35 1.41 1.26 1.07 1.05 1.17 1.25 1.38 1.51 1.57 1.67 1.73 1.58 1.46 1.44 1.48 1.52 1.54 1.63 1.73 1.81 1.90 1.90 1.91 1.91 1.85 1.78 1.78 1.80 1.67
2.44 2.51 2.31 2.25 2.47 2.63 1.60 1.02 0.86 0.85 0.91 0.60 0.52 0.86 1.10 1.34 1.43 1.38 1.35 1.39 1.37 1.30 1.23 1.16 1.17 1.15 1.16 1.27 1.59 1.89 1.96 1.80 1.55 1.45 1.38 1.47 1.42 1.46 1.58 1.60 1.79 1.90 1.89 1.91 1.93 1.85 1.76 1.80 1.78
2.09 2.42 2.51 2.45 2.35 2.07 1.26 0.94 0.75 0.55 0.58 0.52 0.42 0.62 0.81 0.84 1.10 1.30 1.31 1.33 1.29 1.21 1.23 1.17 1.17 1.20 1.28 1.34 1.47 1.83 2.03 1.99 1.55 1.31 1.30 1.24 1.13 1.22 1.33 1.38 1.81 1.99 2.10 2.11 2.07 1.93 1.79 1.70 1.71
2.14 2.37 2.25 1.82 1.58 1.30 1.00 0.86 0.71 0.74 0.82 0.72 0.56 0.63 0.78 0.85 0.97 1.20 1.24 1.13 1.08 1.05 1.07 1.08 1.07 1.06 1.09 1.13 1.52 1.82 1.68 1.72 1.38 1.29 1.21 1.17 1.24 1.28 1.13 1.27 1.74 1.97 2.09 2.09 2.02 1.94 1.71 1.45 1.30
1.80 1.94 1.60 1.37 1.15 0.93 0.87 0.82 0.63 0.75 0.94 0.74 0.57 0.64 0.78 0.89 1.00 1.06 1.12 1.04 0.95 0.94 0.84 0.81 0.86 0.84 0.84 0.96 1.14 1.47 1.72 1.70 1.62 1.53 1.41 1.37 1.28 1.14 1.11 1.27 1.42 1.61 1.71 1.63 1.69 1.67 1.48 1.30 1.23
1.56 1.49 1.30 1.16 0.86 0.90 0.90 0.76 0.68 0.66 0.71 0.52 0.47 0.54 0.72 0.90 1.02 1.00 1.02 1.03 0.95 0.99 0.97 0.80 0.73 0.73 0.73 0.78 0.94 1.19 1.41 1.49 1.48 1.38 1.24 1.42 1.38 1.19 1.18 1.41 1.55 1.56 1.63 1.77 1.78 1.71 1.55 1.38 1.24
1.45 1.49 1.21 0.99 0.86 0.90 0.84 0.77 0.66 0.68 0.57 0.45 0.45 0.59 0.81 1.00 1.06 1.05 0.98 0.99 0.99 1.00 1.05 0.93 0.73 0.68 0.75 0.78 0.84 0.91 1.13 1.23 1.20 1.33 1.23 1.26 1.29 1.17 1.13 1.23 1.49 1.57 1.61 1.81 1.88 1.68 1.59 1.59 1.53
1.27 1.22 1.16 1.00 0.91 0.93 0.94 0.77 0.66 0.79 0.68 0.57 0.63 0.75 0.92 1.02 1.02 0.97 0.90 0.86 0.87 0.88 0.94 0.91 0.80 0.77 0.78 0.75 0.71 0.71 0.75 0.92 0.92 0.92 0.87 1.05 1.21 1.21 1.23 1.18 1.33 1.59 1.66 1.73 1.75 1.67 1.60 1.55 1.56
1.05 1.14 1.27 1.17 1.11 1.07 0.96 1.04 0.81 0.82 0.81 0.69 0.68 0.75 0.95 0.93 0.91 0.87 0.79 0.71 0.67 0.75 0.80 0.85 0.86 0.84 0.81 0.82 0.80 0.74 0.75 0.80 0.87 0.91 0.90 1.00 1.13 1.22 1.22 1.12 1.21 1.46 1.69 1.73 1.72 1.65 1.66 1.49 1.41
1.23 1.52 1.76 1.44 1.22 1.18 1.09 1.25 0.89 0.89 0.84 0.74 0.71 0.70 0.80 0.71 0.70 0.72 0.67 0.61 0.57 0.58 0.64 0.71 0.72 0.78 0.83 0.85 0.89 0.85 0.87 0.87 0.85 0.90 0.89 0.90 1.05 1.20 1.30 1.22 1.18 1.38 1.63 1.88 2.01 1.88 1.78 1.65 1.54
1.56 1.65 1.58 1.49 1.17 1.17 1.10 1.15 0.97 0.83 0.79 0.70 0.68 0.69 0.66 0.60 0.55 0.58 0.57 0.53 0.46 0.45 0.45 0.51 0.59 0.69 0.77 0.84 0.92 0.88 0.89 1.03 1.08 0.96 0.87 0.93 1.04 1.13 1.35 1.46 1.39 1.44 1.66 1.79 1.87 1.91 1.77 1.74 1.66
1.26 1.25 1.25 1.34 1.11 1.02 1.00 0.93 0.94 0.78 0.63 0.59 0.59 0.59 0.55 0.52 0.46 0.47 0.48 0.48 0.44 0.42 0.41 0.43 0.52 0.57 0.59 0.75 0.91 1.00 0.93 0.98 1.19 1.22 1.25 1.29 1.33 1.34 1.48 1.60 1.63 1.65 1.77 1.79 1.97 2.18 1.98 1.78 1.75
0.92 0.93 0.98 0.91 0.77 0.88 0.89 0.84 0.88 0.81 0.65 0.52 0.50 0.54 0.50 0.47 0.48 0.42 0.39 0.45 0.46 0.41 0.37 0.43 0.49 0.52 0.53 0.65 0.80 0.90 0.98 1.12 1.30 1.35 1.42 1.57 1.60 1.60 1.69 1.79 1.86 1.83 1.78 1.88 2.08 2.48 2.37 2.02 1.80
0.84 0.83 0.87 0.77 0.67 0.71 0.81 0.86 0.84 0.76 0.67 0.56 0.49 0.42 0.40 0.39 0.37 0.34 0.32 0.35 0.37 0.38 0.36 0.38 0.49 0.58 0.62 0.68 0.82 0.99 1.22 1.30 1.43 1.59 1.59 1.60 1.66 1.70 1.77 1.95 2.07 2.05 2.06 2.16 2.22 2.50 2.69 2.43 2.21
0.82 0.76 0.71 0.73 0.70 0.69 0.75 0.96 0.90 0.81 0.67 0.55 0.47 0.38 0.31 0.34 0.32 0.26 0.28 0.30 0.32 0.34 0.42 0.44 0.56 0.76 0.93 1.00 1.20 1.50 1.75 1.81 1.75 1.78 1.85 1.82 1.83 1.90 1.86 1.94 2.14 2.15 2.16 2.24 2.43 2.75 3.08 3.06 2.76
0.84 0.59 0.52 0.63 0.77 0.88 0.72 1.04 0.88 0.80 0.72 0.56 0.47 0.41 0.34 0.37 0.40 0.31 0.29 0.32 0.30 0.35 0.49 0.68 0.88 1.18 1.39 1.50 1.65 1.88 1.99 2.02 1.94 1.96 1.98 1.99 1.89 1.82 1.82 1.91 2.10 2.26 2.40 2.53 2.60 2.59 3.00 3.33 3.15
0.66 0.53 0.53 0.62 0.74 0.78 0.65 0.79 0.76 0.65 0.71 0.62 0.56 0.50 0.45 0.44 0.43 0.44 0.43 0.48 0.50 0.60 0.81 1.16 1.44 1.63 1.76 1.79 1.84 2.02 2.16 2.31 2.33 2.24 2.10 2.03 2.01 1.94 1.84 1.86 1.92 1.96 2.08 2.26 2.40 2.46 2.72 2.96 3.14
0.54 0.61 0.65 0.67 0.78 0.90 0.61 0.62 0.75 0.62 0.59 0.62 0.63 0.56 0.50 0.47 0.48 0.58 0.71 0.85 0.94 1.02 1.23 1.47 1.62 1.76 1.74 1.71 1.73 1.84 2.03 2.18 2.20 2.25 2.24 2.13 2.04 1.95 1.81 1.73 1.81 1.83 1.84 1.99 2.12 2.24 2.53 2.73 2.88
0.60 0.80 1.03 1.05 1.03 0.86 0.51 0.61 0.65 0.45 0.42 0.50 0.56 0.56 0.52 0.48 0.57 0.77 0.94 1.10 1.21 1.31 1.42 1.46 1.45 1.52 1.55 1.50 1.50 1.57 1.66 1.69 1.73 1.86 1.80 1.69 1.61 1.56 1.53 1.43 1.46 1.60 1.67 1.85 1.94 1.91 1.99 2.17 2.39
0.56 0.61 0.91 1.02 0.90 0.74 0.57 0.75 0.66 0.47 0.44 0.42 0.47 0.55 0.62 0.71 0.84 0.96 1.07 1.18 1.24 1.37 1.42 1.38 1.34 1.34 1.28 1.21 1.23 1.22 1.28 1.36 1.35 1.36 1.33 1.26 1.22 1.21 1.17 1.16 1.16 1.21 1.30 1.52 1.76 1.79 1.80 1.85 1.93
0.48 0.48 0.52 0.71 0.67 0.70 0.64 0.74 0.67 0.45 0.43 0.41 0.43 0.53 0.68 0.85 1.09 1.27 1.27 1.18 1.13 1.19 1.26 1.24 1.19 1.14 1.05 0.99 1.01 1.02 1.08 1.12 1.09 1.04 0.98 0.99 0.93 0.93 0.92 0.97 1.05 1.12 1.12 1.22 1.37 1.58 1.64 1.72 1.79
0.39 0.43 0.54 0.80 0.94 0.93 0.76 0.83 0.79 0.58 0.51 0.48 0.52 0.64 0.81 0.97 1.18 1.45 1.56 1.44 1.20 1.03 1.06 1.03 1.02 1.06 1.05 1.01 1.01 0.98 0.90 0.82 0.80 0.81 0.74 0.74 0.80 0.82 0.84 0.84 0.90 0.97 1.01 1.10 1.21 1.26 1.36 1.46 1.62
0.40 0.46 0.57 0.75 0.76 1.01 1.24 1.20 0.88 0.76 0.68 0.67 0.71 0.78 0.86 1.11 1.40 1.52 1.53 1.40 1.25 0.99 0.92 0.92 0.91 0.95 1.03 0.97 0.98 0.96 0.85 0.72 0.67 0.62 0.57 0.58 0.62 0.67 0.67 0.73 0.84 0.88 0.91 0.94 0.95 0.99 1.04 1.11 1.23
0.36 0.44 0.60 0.91 0.91 0.86 1.08 1.11 0.71 0.74 0.85 0.79 0.85 0.93 0.96 1.04 1.09 1.08 1.16 1.16 1.10 0.99 0.92 0.99 1.02 1.04 0.99 0.93 0.90 0.87 0.80 0.70 0.70 0.64 0.56 0.58 0.63 0.65 0.65 0.71 0.77 0.79 0.85 0.89 0.87 0.86 0.91 1.03 1.12